Time,TemperatureF,DewpointF,PressureIn,WindDirection,WindDirectionDegrees,WindSpeedMPH,WindSpeedGustMPH,Humidity,HourlyPrecipIn,Conditions,Clouds,dailyrainin,SoftwareType,DateUTC
2013-02-03 00:00:00,35.5,20.1,30.33,North,350,0.0,0.0,53,0.00,,---,0.00,VWS V14.01,2013-02-03 07:00:00,
2013-02-03 00:05:00,34.9,20.4,30.33,North,350,0.0,0.0,55,0.00,,---,0.00,VWS V14.01,2013-02-03 07:05:00,
2013-02-03 00:10:00,34.8,20.3,30.34,North,350,0.0,0.0,55,0.00,,---,0.00,VWS V14.01,2013-02-03 07:10:00,
2013-02-03 00:15:00,34.3,19.8,30.33,North,350,0.0,0.0,55,0.00,,---,0.00,VWS V14.01,2013-02-03 07:15:00,
2013-02-03 00:20:00,34.0,20.0,30.33,North,350,0.0,0.0,56,0.00,,---,0.00,VWS V14.01,2013-02-03 07:20:00,
2013-02-03 00:25:00,33.8,20.2,30.33,North,350,0.0,0.0,57,0.00,,---,0.00,VWS V14.01,2013-02-03 07:25:00,
2013-02-03 00:30:00,33.4,19.8,30.32,ENE,57,0.0,0.0,57,0.00,,---,0.00,VWS V14.01,2013-02-03 07:30:00,
2013-02-03 00:35:00,33.6,20.0,30.33,ENE,57,0.0,0.0,57,0.00,,---,0.00,VWS V14.01,2013-02-03 07:35:00,
2013-02-03 00:40:00,33.5,19.5,30.33,ENE,57,0.0,0.0,56,0.00,,---,0.00,VWS V14.01,2013-02-03 07:40:00,
2013-02-03 00:45:00,33.0,19.4,30.33,ENE,57,0.0,0.0,57,0.00,,---,0.00,VWS V14.01,2013-02-03 07:45:00,
2013-02-03 00:50:00,32.9,19.4,30.33,ENE,57,0.0,0.0,57,0.00,,---,0.00,VWS V14.01,2013-02-03 07:50:00,
2013-02-03 00:55:00,33.0,19.0,30.33,ENE,57,0.0,0.0,56,0.00,,---,0.00,VWS V14.01,2013-02-03 07:55:00,
2013-02-03 01:00:00,33.4,19.4,30.33,ENE,57,0.0,0.0,56,0.00,,---,0.00,VWS V14.01,2013-02-03 08:00:00,
2013-02-03 01:05:00,33.6,20.0,30.33,ENE,57,0.0,0.0,57,0.00,,---,0.00,VWS V14.01,2013-02-03 08:05:00,
2013-02-03 01:10:00,33.9,19.9,30.33,ENE,57,0.0,0.0,56,0.00,,---,0.00,VWS V14.01,2013-02-03 08:10:00,
2013-02-03 01:15:00,33.7,19.7,30.32,NE,55,1.0,1.0,56,0.00,,---,0.00,VWS V14.01,2013-02-03 08:15:00,
2013-02-03 01:20:00,33.9,20.3,30.32,NE,55,0.0,0.0,57,0.00,,---,0.00,VWS V14.01,2013-02-03 08:20:00,
2013-02-03 01:25:00,34.5,20.4,30.32,NE,55,0.0,1.0,56,0.00,,---,0.00,VWS V14.01,2013-02-03 08:25:00,
2013-02-03 01:30:00,34.9,20.8,30.32,NE,47,0.0,1.0,56,0.00,,---,0.00,VWS V14.01,2013-02-03 08:30:00,
2013-02-03 01:35:00,35.2,20.7,30.32,NE,43,0.0,1.0,55,0.00,,---,0.00,VWS V14.01,2013-02-03 08:35:00,
2013-02-03 01:40:00,35.2,20.7,30.32,NE,36,1.0,1.0,55,0.00,,---,0.00,VWS V14.01,2013-02-03 08:40:00,
2013-02-03 01:45:00,35.3,20.8,30.32,NNE,19,0.0,1.0,55,0.00,,---,0.00,VWS V14.01,2013-02-03 08:45:00,
2013-02-03 01:50:00,35.5,20.5,30.32,NNE,19,0.0,0.0,54,0.00,,---,0.00,VWS V14.01,2013-02-03 08:50:00,
2013-02-03 01:55:00,35.5,20.5,30.32,NNE,32,0.0,1.0,54,0.00,,---,0.00,VWS V14.01,2013-02-03 08:55:00,
2013-02-03 02:00:00,35.7,20.7,30.31,NNE,28,0.0,2.0,54,0.00,,---,0.00,VWS V14.01,2013-02-03 09:00:00,
2013-02-03 02:05:00,35.9,20.5,30.31,NNE,24,0.0,0.0,53,0.00,,---,0.00,VWS V14.01,2013-02-03 09:05:00,
2013-02-03 02:10:00,35.8,20.4,30.31,NNE,24,0.0,0.0,53,0.00,,---,0.00,VWS V14.01,2013-02-03 09:10:00,
2013-02-03 02:15:00,35.6,20.2,30.31,NNE,24,0.0,0.0,53,0.00,,---,0.00,VWS V14.01,2013-02-03 09:15:00,
2013-02-03 02:20:00,35.0,19.6,30.31,NNE,24,0.0,0.0,53,0.00,,---,0.00,VWS V14.01,2013-02-03 09:20:00,
2013-02-03 02:25:00,34.2,19.7,30.31,NNE,24,0.0,0.0,55,0.00,,---,0.00,VWS V14.01,2013-02-03 09:25:00,
2013-02-03 02:30:00,34.1,19.6,30.31,North,5,1.0,2.0,55,0.00,,---,0.00,VWS V14.01,2013-02-03 09:30:00,
2013-02-03 02:35:00,34.1,19.6,30.31,North,5,0.0,0.0,55,0.00,,---,0.00,VWS V14.01,2013-02-03 09:35:00,
2013-02-03 02:40:00,34.3,19.8,30.31,North,5,0.0,1.0,55,0.00,,---,0.00,VWS V14.01,2013-02-03 09:40:00,
2013-02-03 02:45:00,34.7,20.2,30.30,NNW,331,2.0,2.0,55,0.00,,---,0.00,VWS V14.01,2013-02-03 09:45:00,
2013-02-03 02:50:00,34.6,20.1,30.31,NNW,331,0.0,0.0,55,0.00,,---,0.00,VWS V14.01,2013-02-03 09:50:00,
2013-02-03 02:55:00,33.7,20.1,30.31,NNW,331,0.0,0.0,57,0.00,,---,0.00,VWS V14.01,2013-02-03 09:55:00,
2013-02-03 03:00:00,33.3,20.5,30.30,NNW,331,0.0,0.0,59,0.00,,---,0.00,VWS V14.01,2013-02-03 10:00:00,
2013-02-03 03:05:00,32.8,20.5,30.30,NNW,331,1.0,1.0,60,0.00,,---,0.00,VWS V14.01,2013-02-03 10:05:00,
2013-02-03 03:10:00,32.5,20.6,30.30,NNW,331,0.0,1.0,61,0.00,,---,0.00,VWS V14.01,2013-02-03 10:10:00,
2013-02-03 03:15:00,32.2,20.3,30.30,NNW,331,0.0,0.0,61,0.00,,---,0.00,VWS V14.01,2013-02-03 10:15:00,
2013-02-03 03:20:00,31.9,20.4,30.30,NNW,331,0.0,0.0,62,0.00,,---,0.00,VWS V14.01,2013-02-03 10:20:00,
2013-02-03 03:25:00,31.6,20.5,30.30,NNW,331,0.0,0.0,63,0.00,,---,0.00,VWS V14.01,2013-02-03 10:25:00,
2013-02-03 03:30:00,31.5,20.4,30.29,NNW,331,0.0,0.0,63,0.00,,---,0.00,VWS V14.01,2013-02-03 10:30:00,
2013-02-03 03:35:00,31.5,20.4,30.29,NNW,331,0.0,0.0,63,0.00,,---,0.00,VWS V14.01,2013-02-03 10:35:00,
2013-02-03 03:40:00,31.1,20.4,30.29,NNW,331,0.0,0.0,64,0.00,,---,0.00,VWS V14.01,2013-02-03 10:40:00,
2013-02-03 03:45:00,31.2,20.5,30.29,NNW,331,0.0,0.0,64,0.00,,---,0.00,VWS V14.01,2013-02-03 10:45:00,
2013-02-03 03:50:00,31.2,20.5,30.29,NNW,331,0.0,0.0,64,0.00,,---,0.00,VWS V14.01,2013-02-03 10:50:00,
2013-02-03 03:55:00,31.0,20.3,30.29,NNW,331,0.0,0.0,64,0.00,,---,0.00,VWS V14.01,2013-02-03 10:55:00,
2013-02-03 04:00:00,31.0,20.3,30.28,NNW,331,0.0,0.0,64,0.00,,---,0.00,VWS V14.01,2013-02-03 11:00:00,
2013-02-03 04:05:00,30.8,20.1,30.29,NNW,331,0.0,0.0,64,0.00,,---,0.00,VWS V14.01,2013-02-03 11:05:00,
2013-02-03 04:10:00,30.7,20.0,30.29,NNW,331,0.0,0.0,64,0.00,,---,0.00,VWS V14.01,2013-02-03 11:10:00,
2013-02-03 04:15:00,30.8,20.1,30.28,NNW,331,0.0,0.0,64,0.00,,---,0.00,VWS V14.01,2013-02-03 11:15:00,
2013-02-03 04:20:00,31.0,19.9,30.28,NNW,331,0.0,0.0,63,0.00,,---,0.00,VWS V14.01,2013-02-03 11:20:00,
2013-02-03 04:25:00,31.1,20.0,30.28,NNW,331,0.0,0.0,63,0.00,,---,0.00,VWS V14.01,2013-02-03 11:25:00,
2013-02-03 04:30:00,31.0,19.5,30.27,NNW,331,0.0,0.0,62,0.00,,---,0.00,VWS V14.01,2013-02-03 11:30:00,
2013-02-03 04:35:00,31.0,19.5,30.27,NNW,331,0.0,0.0,62,0.00,,---,0.00,VWS V14.01,2013-02-03 11:35:00,
2013-02-03 04:40:00,31.0,19.5,30.27,NNW,336,0.0,0.0,62,0.00,,---,0.00,VWS V14.01,2013-02-03 11:40:00,
2013-02-03 04:45:00,31.0,19.5,30.27,NNW,335,0.0,0.0,62,0.00,,---,0.00,VWS V14.01,2013-02-03 11:45:00,
2013-02-03 04:50:00,31.0,19.5,30.27,NNW,336,0.0,0.0,62,0.00,,---,0.00,VWS V14.01,2013-02-03 11:50:00,
2013-02-03 04:55:00,30.8,19.7,30.27,NNW,335,0.0,0.0,63,0.00,,---,0.00,VWS V14.01,2013-02-03 11:55:00,
2013-02-03 05:00:00,30.7,19.2,30.27,NNW,336,0.0,0.0,62,0.00,,---,0.00,VWS V14.01,2013-02-03 12:00:00,
2013-02-03 05:05:00,30.5,19.4,30.27,NNW,335,0.0,0.0,63,0.00,,---,0.00,VWS V14.01,2013-02-03 12:05:00,
2013-02-03 05:10:00,30.2,19.5,30.27,NNW,336,0.0,0.0,64,0.00,,---,0.00,VWS V14.01,2013-02-03 12:10:00,
2013-02-03 05:15:00,29.9,19.2,30.27,NNW,336,0.0,0.0,64,0.00,,---,0.00,VWS V14.01,2013-02-03 12:15:00,
2013-02-03 05:20:00,29.7,19.4,30.26,NNW,336,0.0,0.0,65,0.00,,---,0.00,VWS V14.01,2013-02-03 12:20:00,
2013-02-03 05:25:00,29.3,19.0,30.26,NNW,335,0.0,0.0,65,0.00,,---,0.00,VWS V14.01,2013-02-03 12:25:00,
2013-02-03 05:30:00,29.3,19.0,30.26,NNW,335,0.0,0.0,65,0.00,,---,0.00,VWS V14.01,2013-02-03 12:30:00,
2013-02-03 05:35:00,29.7,19.0,30.26,NNW,335,0.0,0.0,64,0.00,,---,0.00,VWS V14.01,2013-02-03 12:35:00,
2013-02-03 05:40:00,30.2,19.1,30.26,NNW,336,0.0,1.0,63,0.00,,---,0.00,VWS V14.01,2013-02-03 12:40:00,
2013-02-03 05:45:00,30.3,18.9,30.26,NNW,335,0.0,0.0,62,0.00,,---,0.00,VWS V14.01,2013-02-03 12:45:00,
2013-02-03 05:50:00,30.3,18.9,30.26,NNW,336,0.0,1.0,62,0.00,,---,0.00,VWS V14.01,2013-02-03 12:50:00,
2013-02-03 05:55:00,30.2,18.8,30.26,NNW,335,0.0,1.0,62,0.00,,---,0.00,VWS V14.01,2013-02-03 12:55:00,
2013-02-03 06:00:00,30.1,18.7,30.26,NNW,335,1.0,1.0,62,0.00,,---,0.00,VWS V14.01,2013-02-03 13:00:00,
2013-02-03 06:05:00,30.0,18.6,30.26,North,355,1.0,2.0,62,0.00,,---,0.00,VWS V14.01,2013-02-03 13:05:00,
2013-02-03 06:10:00,29.9,18.5,30.26,North,355,0.0,1.0,62,0.00,,---,0.00,VWS V14.01,2013-02-03 13:10:00,
2013-02-03 06:15:00,29.9,18.5,30.26,North,355,0.0,0.0,62,0.00,,---,0.00,VWS V14.01,2013-02-03 13:15:00,
2013-02-03 06:20:00,29.8,18.4,30.26,NNW,335,1.0,1.0,62,0.00,,---,0.00,VWS V14.01,2013-02-03 13:20:00,
2013-02-03 06:25:00,29.8,18.4,30.25,NNW,337,0.0,0.0,62,0.00,,---,0.00,VWS V14.01,2013-02-03 13:25:00,
2013-02-03 06:30:00,29.7,18.3,30.25,NNW,334,1.0,1.0,62,0.00,,---,0.00,VWS V14.01,2013-02-03 13:30:00,
2013-02-03 06:35:00,29.7,18.3,30.25,NNW,346,1.0,2.0,62,0.00,,---,0.00,VWS V14.01,2013-02-03 13:35:00,
2013-02-03 06:40:00,29.7,18.3,30.25,NNW,337,0.0,1.0,62,0.00,,---,0.00,VWS V14.01,2013-02-03 13:40:00,
2013-02-03 06:45:00,29.6,18.2,30.25,NNW,337,0.0,1.0,62,0.00,,---,0.00,VWS V14.01,2013-02-03 13:45:00,
2013-02-03 06:50:00,29.5,18.5,30.25,NNW,337,0.0,1.0,63,0.00,,---,0.00,VWS V14.01,2013-02-03 13:50:00,
2013-02-03 06:55:00,29.5,18.5,30.25,NNW,338,0.0,0.0,63,0.00,,---,0.00,VWS V14.01,2013-02-03 13:55:00,
2013-02-03 07:00:00,29.4,18.4,30.25,NNW,338,0.0,0.0,63,0.00,,---,0.00,VWS V14.01,2013-02-03 14:00:00,
2013-02-03 07:05:00,29.0,18.4,30.25,NNW,338,0.0,0.0,64,0.00,,---,0.00,VWS V14.01,2013-02-03 14:05:00,
2013-02-03 07:10:00,29.0,18.4,30.24,NNW,338,0.0,0.0,64,0.00,,---,0.00,VWS V14.01,2013-02-03 14:10:00,
2013-02-03 07:15:00,28.8,18.2,30.24,NNW,337,0.0,0.0,64,0.00,,---,0.00,VWS V14.01,2013-02-03 14:15:00,
2013-02-03 07:20:00,28.9,18.3,30.24,NNW,337,0.0,0.0,64,0.00,,---,0.00,VWS V14.01,2013-02-03 14:20:00,
2013-02-03 07:25:00,28.9,18.3,30.25,NNW,338,0.0,0.0,64,0.00,,---,0.00,VWS V14.01,2013-02-03 14:25:00,
2013-02-03 07:30:00,29.0,18.4,30.25,NNW,337,0.0,0.0,64,0.00,,---,0.00,VWS V14.01,2013-02-03 14:30:00,
2013-02-03 07:35:00,28.9,18.6,30.24,NNW,338,0.0,0.0,65,0.00,,---,0.00,VWS V14.01,2013-02-03 14:35:00,
2013-02-03 07:40:00,29.1,18.8,30.25,NNW,337,0.0,0.0,65,0.00,,---,0.00,VWS V14.01,2013-02-03 14:40:00,
2013-02-03 07:45:00,29.3,19.0,30.24,NNW,337,0.0,0.0,65,0.00,,---,0.00,VWS V14.01,2013-02-03 14:45:00,
2013-02-03 07:50:00,29.7,19.0,30.25,NNW,337,0.0,0.0,64,0.00,,---,0.00,VWS V14.01,2013-02-03 14:50:00,
2013-02-03 07:55:00,30.2,19.1,30.24,NNW,338,0.0,0.0,63,0.00,,---,0.00,VWS V14.01,2013-02-03 14:55:00,
2013-02-03 08:00:00,30.6,19.1,30.24,NNW,338,0.0,0.0,62,0.00,,---,0.00,VWS V14.01,2013-02-03 15:00:00,
2013-02-03 08:05:00,31.0,19.1,30.24,NNW,337,0.0,0.0,61,0.00,,---,0.00,VWS V14.01,2013-02-03 15:05:00,
2013-02-03 08:10:00,31.5,19.2,30.24,NNW,337,0.0,1.0,60,0.00,,---,0.00,VWS V14.01,2013-02-03 15:10:00,
2013-02-03 08:15:00,32.1,19.4,30.24,NNW,338,0.0,0.0,59,0.00,,---,0.00,VWS V14.01,2013-02-03 15:15:00,
2013-02-03 08:20:00,32.5,19.4,30.24,NNW,338,0.0,1.0,58,0.00,,---,0.00,VWS V14.01,2013-02-03 15:20:00,
2013-02-03 08:25:00,32.9,19.4,30.25,NNW,338,0.0,1.0,57,0.00,,---,0.00,VWS V14.01,2013-02-03 15:25:00,
2013-02-03 08:30:00,33.5,19.5,30.25,SE,142,2.0,2.0,56,0.00,,---,0.00,VWS V14.01,2013-02-03 15:30:00,
2013-02-03 08:35:00,34.0,19.5,30.25,SSE,147,0.0,1.0,55,0.00,,---,0.00,VWS V14.01,2013-02-03 15:35:00,
2013-02-03 08:40:00,34.6,19.7,30.24,SSE,147,0.0,0.0,54,0.00,,---,0.00,VWS V14.01,2013-02-03 15:40:00,
2013-02-03 08:45:00,35.5,20.1,30.24,SSE,147,0.0,0.0,53,0.00,,---,0.00,VWS V14.01,2013-02-03 15:45:00,
2013-02-03 08:50:00,36.0,19.6,30.24,SE,145,0.0,1.0,51,0.00,,---,0.00,VWS V14.01,2013-02-03 15:50:00,
2013-02-03 08:55:00,36.1,19.3,30.24,SSW,201,0.0,1.0,50,0.00,,---,0.00,VWS V14.01,2013-02-03 15:55:00,
2013-02-03 09:00:00,36.6,20.2,30.24,SSW,201,0.0,0.0,51,0.00,,---,0.00,VWS V14.01,2013-02-03 16:00:00,
2013-02-03 09:05:00,37.0,19.6,30.24,South,188,0.0,1.0,49,0.00,,---,0.00,VWS V14.01,2013-02-03 16:05:00,
2013-02-03 09:10:00,37.5,19.1,30.24,SSE,164,3.0,5.0,47,0.00,,---,0.00,VWS V14.01,2013-02-03 16:10:00,
2013-02-03 09:15:00,38.1,19.2,30.23,SE,140,3.0,4.0,46,0.00,,---,0.00,VWS V14.01,2013-02-03 16:15:00,
2013-02-03 09:20:00,38.6,19.1,30.23,SSE,157,3.0,5.0,45,0.00,,---,0.00,VWS V14.01,2013-02-03 16:20:00,
2013-02-03 09:25:00,38.7,18.7,30.23,SSW,205,2.0,2.0,44,0.00,,---,0.00,VWS V14.01,2013-02-03 16:25:00,
2013-02-03 09:30:00,39.2,19.1,30.23,SSE,155,2.0,3.0,44,0.00,,---,0.00,VWS V14.01,2013-02-03 16:30:00,
2013-02-03 09:35:00,39.5,18.9,30.23,SE,142,2.0,4.0,43,0.00,,---,0.00,VWS V14.01,2013-02-03 16:35:00,
2013-02-03 09:40:00,39.6,19.0,30.23,SSE,148,3.0,3.0,43,0.00,,---,0.00,VWS V14.01,2013-02-03 16:40:00,
2013-02-03 09:45:00,39.6,18.4,30.22,SSW,205,2.0,2.0,42,0.00,,---,0.00,VWS V14.01,2013-02-03 16:45:00,
2013-02-03 09:50:00,40.1,18.9,30.22,SW,234,2.0,3.0,42,0.00,,---,0.00,VWS V14.01,2013-02-03 16:50:00,
2013-02-03 09:55:00,40.4,18.6,30.22,SSE,161,1.0,2.0,41,0.00,,---,0.00,VWS V14.01,2013-02-03 16:55:00,
2013-02-03 10:00:00,40.6,18.8,30.22,SSE,147,1.0,1.0,41,0.00,,---,0.00,VWS V14.01,2013-02-03 17:00:00,
2013-02-03 10:05:00,41.0,18.5,30.22,SW,236,0.0,1.0,40,0.00,,---,0.00,VWS V14.01,2013-02-03 17:05:00,
2013-02-03 10:10:00,41.2,18.1,30.22,SSW,200,0.0,2.0,39,0.00,,---,0.00,VWS V14.01,2013-02-03 17:10:00,
2013-02-03 10:15:00,41.3,18.8,30.22,South,184,0.0,0.0,40,0.00,,---,0.00,VWS V14.01,2013-02-03 17:15:00,
2013-02-03 10:20:00,42.6,19.4,30.22,WSW,253,0.0,0.0,39,0.00,,---,0.00,VWS V14.01,2013-02-03 17:20:00,
2013-02-03 10:25:00,42.7,20.1,30.22,NW,305,0.0,2.0,40,0.00,,---,0.00,VWS V14.01,2013-02-03 17:25:00,
2013-02-03 10:30:00,42.3,20.3,30.21,NNW,338,1.0,1.0,41,0.00,,---,0.00,VWS V14.01,2013-02-03 17:30:00,
2013-02-03 10:35:00,42.1,20.1,30.21,NNW,328,2.0,2.0,41,0.00,,---,0.00,VWS V14.01,2013-02-03 17:35:00,
2013-02-03 10:40:00,42.2,20.2,30.21,WNW,296,1.0,1.0,41,0.00,,---,0.00,VWS V14.01,2013-02-03 17:40:00,
2013-02-03 10:45:00,42.2,19.6,30.21,WNW,299,0.0,1.0,40,0.00,,---,0.00,VWS V14.01,2013-02-03 17:45:00,
2013-02-03 10:50:00,42.6,20.0,30.21,NW,309,1.0,1.0,40,0.00,,---,0.00,VWS V14.01,2013-02-03 17:50:00,
2013-02-03 10:55:00,43.1,20.4,30.20,NW,309,0.0,0.0,40,0.00,,---,0.00,VWS V14.01,2013-02-03 17:55:00,
2013-02-03 11:00:00,43.4,20.1,30.20,NW,318,0.0,1.0,39,0.00,,---,0.00,VWS V14.01,2013-02-03 18:00:00,
2013-02-03 11:05:00,43.6,19.7,30.20,NNW,330,0.0,2.0,38,0.00,,---,0.00,VWS V14.01,2013-02-03 18:05:00,
2013-02-03 11:10:00,43.1,19.8,30.20,NNW,331,2.0,2.0,39,0.00,,---,0.00,VWS V14.01,2013-02-03 18:10:00,
2013-02-03 11:15:00,43.5,19.6,30.19,NNW,331,0.0,0.0,38,0.00,,---,0.00,VWS V14.01,2013-02-03 18:15:00,
2013-02-03 11:20:00,43.8,19.2,30.19,NE,51,1.0,1.0,37,0.00,,---,0.00,VWS V14.01,2013-02-03 18:20:00,
2013-02-03 11:25:00,44.2,20.2,30.19,East,94,0.0,0.0,38,0.00,,---,0.00,VWS V14.01,2013-02-03 18:25:00,
2013-02-03 11:30:00,45.1,19.8,30.19,East,101,0.0,0.0,36,0.00,,---,0.00,VWS V14.01,2013-02-03 18:30:00,
2013-02-03 11:35:00,44.9,19.6,30.18,SE,144,0.0,1.0,36,0.00,,---,0.00,VWS V14.01,2013-02-03 18:35:00,
2013-02-03 11:40:00,45.3,19.9,30.18,South,186,1.0,3.0,36,0.00,,---,0.00,VWS V14.01,2013-02-03 18:40:00,
2013-02-03 11:45:00,45.5,19.5,30.18,SW,227,0.0,2.0,35,0.00,,---,0.00,VWS V14.01,2013-02-03 18:45:00,
2013-02-03 11:50:00,45.8,19.7,30.18,South,180,0.0,0.0,35,0.00,,---,0.00,VWS V14.01,2013-02-03 18:50:00,
2013-02-03 11:55:00,45.9,19.8,30.17,South,180,1.0,1.0,35,0.00,,---,0.00,VWS V14.01,2013-02-03 18:55:00,
2013-02-03 12:00:00,46.3,20.2,30.17,WNW,287,0.0,0.0,35,0.00,,---,0.00,VWS V14.01,2013-02-03 19:00:00,
2013-02-03 12:05:00,46.8,20.6,30.17,NW,312,1.0,1.0,35,0.00,,---,0.00,VWS V14.01,2013-02-03 19:05:00,
2013-02-03 12:10:00,47.5,21.2,30.17,WSW,252,0.0,1.0,35,0.00,,---,0.00,VWS V14.01,2013-02-03 19:10:00,
2013-02-03 12:15:00,47.0,20.1,30.17,SW,233,0.0,2.0,34,0.00,,---,0.00,VWS V14.01,2013-02-03 19:15:00,
2013-02-03 12:20:00,46.3,20.2,30.16,SW,219,1.0,1.0,35,0.00,,---,0.00,VWS V14.01,2013-02-03 19:20:00,
2013-02-03 12:25:00,47.3,20.4,30.15,SW,219,0.0,0.0,34,0.00,,---,0.00,VWS V14.01,2013-02-03 19:25:00,
2013-02-03 12:30:00,48.2,20.5,30.15,SW,219,0.0,1.0,33,0.00,,---,0.00,VWS V14.01,2013-02-03 19:30:00,
2013-02-03 12:35:00,47.6,19.9,30.14,SW,222,1.0,2.0,33,0.00,,---,0.00,VWS V14.01,2013-02-03 19:35:00,
2013-02-03 12:40:00,47.3,19.7,30.14,SW,221,0.0,0.0,33,0.00,,---,0.00,VWS V14.01,2013-02-03 19:40:00,
2013-02-03 12:45:00,47.8,19.4,30.13,SW,221,0.0,0.0,32,0.00,,---,0.00,VWS V14.01,2013-02-03 19:45:00,
2013-02-03 12:50:00,47.5,19.9,30.13,SW,221,0.0,0.0,33,0.00,,---,0.00,VWS V14.01,2013-02-03 19:50:00,
2013-02-03 12:55:00,48.1,18.9,30.13,South,186,0.0,0.0,31,0.00,,---,0.00,VWS V14.01,2013-02-03 19:55:00,
2013-02-03 13:00:00,48.9,19.6,30.12,South,179,0.0,1.0,31,0.00,,---,0.00,VWS V14.01,2013-02-03 20:00:00,
2013-02-03 13:05:00,49.5,19.4,30.12,ESE,114,1.0,2.0,30,0.00,,---,0.00,VWS V14.01,2013-02-03 20:05:00,
2013-02-03 13:10:00,49.3,19.2,30.11,ESE,108,2.0,2.0,30,0.00,,---,0.00,VWS V14.01,2013-02-03 20:10:00,
2013-02-03 13:15:00,49.1,18.2,30.11,ESE,118,1.0,2.0,29,0.00,,---,0.00,VWS V14.01,2013-02-03 20:15:00,
2013-02-03 13:20:00,49.1,19.0,30.11,ESE,118,0.0,0.0,30,0.00,,---,0.00,VWS V14.01,2013-02-03 20:20:00,
2013-02-03 13:25:00,49.8,18.8,30.11,ESE,119,1.0,1.0,29,0.00,,---,0.00,VWS V14.01,2013-02-03 20:25:00,
2013-02-03 13:30:00,49.6,18.7,30.10,ENE,77,0.0,1.0,29,0.00,,---,0.00,VWS V14.01,2013-02-03 20:30:00,
2013-02-03 13:35:00,49.8,18.8,30.11,ENE,77,0.0,0.0,29,0.00,,---,0.00,VWS V14.01,2013-02-03 20:35:00,
2013-02-03 13:40:00,49.9,18.1,30.10,SSW,207,1.0,2.0,28,0.00,,---,0.00,VWS V14.01,2013-02-03 20:40:00,
2013-02-03 13:45:00,49.2,18.3,30.10,SW,224,0.0,0.0,29,0.00,,---,0.00,VWS V14.01,2013-02-03 20:45:00,
2013-02-03 13:50:00,49.8,18.8,30.10,WNW,286,1.0,1.0,29,0.00,,---,0.00,VWS V14.01,2013-02-03 20:50:00,
2013-02-03 13:55:00,50.0,18.2,30.09,WNW,300,0.0,0.0,28,0.00,,---,0.00,VWS V14.01,2013-02-03 20:55:00,
2013-02-03 14:00:00,50.5,18.6,30.09,WNW,300,0.0,2.0,28,0.00,,---,0.00,VWS V14.01,2013-02-03 21:00:00,
2013-02-03 14:05:00,50.1,18.3,30.09,WNW,289,0.0,0.0,28,0.00,,---,0.00,VWS V14.01,2013-02-03 21:05:00,
2013-02-03 14:10:00,50.6,17.9,30.08,WNW,289,0.0,1.0,27,0.00,,---,0.00,VWS V14.01,2013-02-03 21:10:00,
2013-02-03 14:15:00,50.3,18.5,30.08,ESE,123,2.0,2.0,28,0.00,,---,0.00,VWS V14.01,2013-02-03 21:15:00,
2013-02-03 14:20:00,50.4,17.7,30.08,South,183,1.0,2.0,27,0.00,,---,0.00,VWS V14.01,2013-02-03 21:20:00,
2013-02-03 14:25:00,50.9,18.1,30.07,SE,135,1.0,1.0,27,0.00,,---,0.00,VWS V14.01,2013-02-03 21:25:00,
2013-02-03 14:30:00,50.8,18.0,30.07,SE,134,0.0,0.0,27,0.00,,---,0.00,VWS V14.01,2013-02-03 21:30:00,
2013-02-03 14:35:00,51.2,18.4,30.07,SE,129,1.0,3.0,27,0.00,,---,0.00,VWS V14.01,2013-02-03 21:35:00,
2013-02-03 14:40:00,51.1,17.4,30.07,SW,232,1.0,2.0,26,0.00,,---,0.00,VWS V14.01,2013-02-03 21:40:00,
2013-02-03 14:45:00,51.1,18.3,30.06,SW,214,0.0,0.0,27,0.00,,---,0.00,VWS V14.01,2013-02-03 21:45:00,
2013-02-03 14:50:00,50.9,17.2,30.06,SW,223,3.0,3.0,26,0.00,,---,0.00,VWS V14.01,2013-02-03 21:50:00,
2013-02-03 14:55:00,50.4,16.8,30.06,SW,223,0.0,2.0,26,0.00,,---,0.00,VWS V14.01,2013-02-03 21:55:00,
2013-02-03 15:00:00,51.0,17.3,30.06,SW,223,0.0,0.0,26,0.00,,---,0.00,VWS V14.01,2013-02-03 22:00:00,
2013-02-03 15:05:00,51.1,17.4,30.06,NW,320,0.0,1.0,26,0.00,,---,0.00,VWS V14.01,2013-02-03 22:05:00,
2013-02-03 15:10:00,51.3,17.6,30.06,NW,320,0.0,0.0,26,0.00,,---,0.00,VWS V14.01,2013-02-03 22:10:00,
2013-02-03 15:15:00,51.3,17.6,30.06,WNW,298,1.0,1.0,26,0.00,,---,0.00,VWS V14.01,2013-02-03 22:15:00,
2013-02-03 15:20:00,51.0,17.3,30.05,WNW,298,0.0,1.0,26,0.00,,---,0.00,VWS V14.01,2013-02-03 22:20:00,
2013-02-03 15:25:00,50.9,17.2,30.05,WNW,298,0.0,0.0,26,0.00,,---,0.00,VWS V14.01,2013-02-03 22:25:00,
2013-02-03 15:30:00,51.2,17.5,30.05,WNW,298,0.0,0.0,26,0.00,,---,0.00,VWS V14.01,2013-02-03 22:30:00,
2013-02-03 15:35:00,51.4,16.8,30.05,WNW,298,0.0,0.0,25,0.00,,---,0.00,VWS V14.01,2013-02-03 22:35:00,
2013-02-03 15:40:00,51.5,16.9,30.05,WNW,298,0.0,0.0,25,0.00,,---,0.00,VWS V14.01,2013-02-03 22:40:00,
2013-02-03 15:45:00,51.9,17.2,30.05,West,279,1.0,2.0,25,0.00,,---,0.00,VWS V14.01,2013-02-03 22:45:00,
2013-02-03 15:50:00,51.7,17.0,30.04,WSW,240,0.0,0.0,25,0.00,,---,0.00,VWS V14.01,2013-02-03 22:50:00,
2013-02-03 15:55:00,51.5,16.9,30.04,SSE,158,0.0,1.0,25,0.00,,---,0.00,VWS V14.01,2013-02-03 22:55:00,
2013-02-03 16:00:00,51.8,16.2,30.03,WNW,285,0.0,0.0,24,0.00,,---,0.00,VWS V14.01,2013-02-03 23:00:00,
2013-02-03 16:05:00,51.7,16.1,30.03,SSW,210,0.0,0.0,24,0.00,,---,0.00,VWS V14.01,2013-02-03 23:05:00,
2013-02-03 16:10:00,51.8,17.1,30.03,SSW,210,0.0,0.0,25,0.00,,---,0.00,VWS V14.01,2013-02-03 23:10:00,
2013-02-03 16:15:00,51.6,17.0,30.04,WNW,288,0.0,1.0,25,0.00,,---,0.00,VWS V14.01,2013-02-03 23:15:00,
2013-02-03 16:20:00,51.5,16.9,30.04,WNW,294,0.0,0.0,25,0.00,,---,0.00,VWS V14.01,2013-02-03 23:20:00,
2013-02-03 16:25:00,51.4,16.8,30.04,WNW,288,0.0,0.0,25,0.00,,---,0.00,VWS V14.01,2013-02-03 23:25:00,
2013-02-03 16:30:00,51.3,16.7,30.03,WNW,288,0.0,1.0,25,0.00,,---,0.00,VWS V14.01,2013-02-03 23:30:00,
2013-02-03 16:35:00,51.1,17.4,30.03,NNW,339,3.0,3.0,26,0.00,,---,0.00,VWS V14.01,2013-02-03 23:35:00,
2013-02-03 16:40:00,50.9,17.2,30.03,NNW,338,0.0,1.0,26,0.00,,---,0.00,VWS V14.01,2013-02-03 23:40:00,
2013-02-03 16:45:00,50.7,17.1,30.03,NNW,338,0.0,1.0,26,0.00,,---,0.00,VWS V14.01,2013-02-03 23:45:00,
2013-02-03 16:50:00,50.6,17.9,30.03,WNW,299,0.0,0.0,27,0.00,,---,0.00,VWS V14.01,2013-02-03 23:50:00,
2013-02-03 16:55:00,50.6,17.9,30.03,WNW,299,0.0,1.0,27,0.00,,---,0.00,VWS V14.01,2013-02-03 23:55:00,
2013-02-03 17:00:00,50.4,17.7,30.03,NW,307,0.0,0.0,27,0.00,,---,0.00,VWS V14.01,2013-02-04 00:00:00,
2013-02-03 17:05:00,50.0,17.4,30.02,NW,307,0.0,0.0,27,0.00,,---,0.00,VWS V14.01,2013-02-04 00:05:00,
2013-02-03 17:10:00,50.0,17.4,30.02,NW,307,0.0,0.0,27,0.00,,---,0.00,VWS V14.01,2013-02-04 00:10:00,
2013-02-03 17:15:00,49.7,17.9,30.02,NW,307,0.0,0.0,28,0.00,,---,0.00,VWS V14.01,2013-02-04 00:15:00,
2013-02-03 17:20:00,49.6,17.0,30.02,NW,307,0.0,0.0,27,0.00,,---,0.00,VWS V14.01,2013-02-04 00:20:00,
2013-02-03 17:25:00,49.4,17.7,30.02,NW,308,0.0,0.0,28,0.00,,---,0.00,VWS V14.01,2013-02-04 00:25:00,
2013-02-03 17:30:00,49.3,17.6,30.02,NW,307,0.0,0.0,28,0.00,,---,0.00,VWS V14.01,2013-02-04 00:30:00,
2013-02-03 17:35:00,49.3,18.4,30.01,NW,307,0.0,0.0,29,0.00,,---,0.00,VWS V14.01,2013-02-04 00:35:00,
2013-02-03 17:40:00,49.1,18.2,30.01,NW,307,0.0,0.0,29,0.00,,---,0.00,VWS V14.01,2013-02-04 00:40:00,
2013-02-03 17:45:00,48.9,18.1,30.02,NW,307,0.0,0.0,29,0.00,,---,0.00,VWS V14.01,2013-02-04 00:45:00,
2013-02-03 17:50:00,48.7,17.1,30.02,NW,307,0.0,2.0,28,0.00,,---,0.00,VWS V14.01,2013-02-04 00:50:00,
2013-02-03 17:55:00,48.7,17.9,30.02,NW,325,0.0,0.0,29,0.00,,---,0.00,VWS V14.01,2013-02-04 00:55:00,
2013-02-03 18:00:00,48.5,17.7,30.02,NW,325,0.0,0.0,29,0.00,,---,0.00,VWS V14.01,2013-02-04 01:00:00,
2013-02-03 18:05:00,48.4,17.6,30.02,NW,325,0.0,0.0,29,0.00,,---,0.00,VWS V14.01,2013-02-04 01:05:00,
2013-02-03 18:10:00,48.3,17.5,30.03,NW,325,1.0,1.0,29,0.00,,---,0.00,VWS V14.01,2013-02-04 01:10:00,
2013-02-03 18:15:00,48.3,17.5,30.03,NW,325,0.0,1.0,29,0.00,,---,0.00,VWS V14.01,2013-02-04 01:15:00,
2013-02-03 18:20:00,48.4,17.6,30.03,NW,325,0.0,0.0,29,0.00,,---,0.00,VWS V14.01,2013-02-04 01:20:00,
2013-02-03 18:25:00,48.5,17.7,30.03,NW,325,0.0,0.0,29,0.00,,---,0.00,VWS V14.01,2013-02-04 01:25:00,
2013-02-03 18:30:00,48.6,17.8,30.03,NW,323,0.0,1.0,29,0.00,,---,0.00,VWS V14.01,2013-02-04 01:30:00,
2013-02-03 18:35:00,48.6,17.8,30.04,NW,324,1.0,1.0,29,0.00,,---,0.00,VWS V14.01,2013-02-04 01:35:00,
2013-02-03 18:40:00,48.6,20.1,30.04,NW,313,1.0,3.0,32,0.00,,---,0.00,VWS V14.01,2013-02-04 01:40:00,
2013-02-03 18:45:00,48.6,22.9,30.04,NNW,329,4.0,4.0,36,0.00,,---,0.00,VWS V14.01,2013-02-04 01:45:00,
2013-02-03 18:50:00,48.6,25.4,30.04,NNW,336,2.0,4.0,40,0.00,,---,0.00,VWS V14.01,2013-02-04 01:50:00,
2013-02-03 18:55:00,48.5,27.0,30.04,NW,324,0.0,4.0,43,0.00,,---,0.00,VWS V14.01,2013-02-04 01:55:00,
2013-02-03 18:59:00,48.4,28.0,30.04,NW,314,1.0,3.0,45,0.00,,---,0.00,VWS V14.01,2013-02-04 01:59:00,
2013-02-03 19:00:00,48.4,28.1,30.04,NW,311,2.0,6.0,45,0.00,,---,0.00,VWS V14.01,2013-02-04 02:00:00,
2013-02-03 19:04:00,48.4,29.1,30.04,North,350,2.0,4.0,47,0.00,,---,0.00,VWS V14.01,2013-02-04 02:04:00,
2013-02-03 19:05:00,48.4,29.1,30.04,NNW,329,1.0,5.0,47,0.00,,---,0.00,VWS V14.01,2013-02-04 02:05:00,
2013-02-03 19:09:00,48.2,28.9,30.04,NW,319,2.0,3.0,47,0.00,,---,0.00,VWS V14.01,2013-02-04 02:09:00,
2013-02-03 19:10:00,48.3,29.0,30.04,NW,315,3.0,4.0,47,0.00,,---,0.00,VWS V14.01,2013-02-04 02:10:00,
2013-02-03 19:14:00,48.2,29.5,30.04,NW,312,4.0,4.0,48,0.00,,---,0.00,VWS V14.01,2013-02-04 02:14:00,
2013-02-03 19:15:00,48.2,29.5,30.04,NW,313,2.0,4.0,48,0.00,,---,0.00,VWS V14.01,2013-02-04 02:15:00,
2013-02-03 19:19:00,48.1,29.4,30.04,NW,321,1.0,1.0,48,0.00,,---,0.00,VWS V14.01,2013-02-04 02:19:00,
2013-02-03 19:20:00,48.1,29.4,30.04,NW,321,0.0,4.0,48,0.00,,---,0.00,VWS V14.01,2013-02-04 02:20:00,
2013-02-03 19:24:00,47.9,29.2,30.04,NNW,329,1.0,3.0,48,0.00,,---,0.00,VWS V14.01,2013-02-04 02:24:00,
2013-02-03 19:25:00,48.0,29.3,30.04,North,9,3.0,3.0,48,0.00,,---,0.00,VWS V14.01,2013-02-04 02:25:00,
2013-02-03 19:29:00,47.8,29.1,30.04,WNW,299,0.0,0.0,48,0.00,,---,0.00,VWS V14.01,2013-02-04 02:29:00,
2013-02-03 19:30:00,47.9,29.2,30.04,WNW,299,0.0,3.0,48,0.00,,---,0.00,VWS V14.01,2013-02-04 02:30:00,
2013-02-03 19:34:00,47.7,29.0,30.04,WNW,293,1.0,2.0,48,0.00,,---,0.00,VWS V14.01,2013-02-04 02:34:00,
2013-02-03 19:35:00,47.7,29.0,30.04,WSW,240,1.0,2.0,48,0.00,,---,0.00,VWS V14.01,2013-02-04 02:35:00,
2013-02-03 19:39:00,47.5,28.8,30.04,NW,316,0.0,2.0,48,0.00,,---,0.00,VWS V14.01,2013-02-04 02:39:00,
2013-02-03 19:40:00,47.5,28.8,30.03,NW,316,2.0,2.0,48,0.00,,---,0.00,VWS V14.01,2013-02-04 02:40:00,
2013-02-03 19:44:00,47.3,28.6,30.04,NW,319,2.0,2.0,48,0.00,,---,0.00,VWS V14.01,2013-02-04 02:44:00,
2013-02-03 19:45:00,47.3,28.6,30.04,NW,321,0.0,2.0,48,0.00,,---,0.00,VWS V14.01,2013-02-04 02:45:00,
2013-02-03 19:49:00,47.1,28.9,30.04,NW,325,0.0,0.0,49,0.00,,---,0.00,VWS V14.01,2013-02-04 02:49:00,
2013-02-03 19:50:00,47.1,28.9,30.04,NW,325,0.0,2.0,49,0.00,,---,0.00,VWS V14.01,2013-02-04 02:50:00,
2013-02-03 19:54:00,46.9,28.8,30.04,NW,324,0.0,0.0,49,0.00,,---,0.00,VWS V14.01,2013-02-04 02:54:00,
2013-02-03 19:59:00,46.4,28.8,30.04,NW,324,1.0,1.0,50,0.00,,---,0.00,VWS V14.01,2013-02-04 02:59:00,
2013-02-03 20:00:00,46.4,28.8,30.04,NW,324,0.0,1.0,50,0.00,,---,0.00,VWS V14.01,2013-02-04 03:00:00,
2013-02-03 20:05:00,46.5,28.9,30.04,NW,317,1.0,1.0,50,0.00,,---,0.00,VWS V14.01,2013-02-04 03:05:00,
2013-02-03 20:10:00,46.4,28.8,30.05,NW,317,0.0,2.0,50,0.00,,---,0.00,VWS V14.01,2013-02-04 03:10:00,
2013-02-03 20:15:00,46.4,28.8,30.04,NW,317,0.0,0.0,50,0.00,,---,0.00,VWS V14.01,2013-02-04 03:15:00,
2013-02-03 20:20:00,46.3,29.2,30.05,NW,318,0.0,0.0,51,0.00,,---,0.00,VWS V14.01,2013-02-04 03:20:00,
2013-02-03 20:25:00,46.3,28.7,30.04,NW,317,0.0,1.0,50,0.00,,---,0.00,VWS V14.01,2013-02-04 03:25:00,
2013-02-03 20:30:00,46.3,28.7,30.05,NNW,329,0.0,2.0,50,0.00,,---,0.00,VWS V14.01,2013-02-04 03:30:00,
2013-02-03 20:35:00,46.3,28.7,30.05,NNW,329,1.0,1.0,50,0.00,,---,0.00,VWS V14.01,2013-02-04 03:35:00,
2013-02-03 20:40:00,46.2,28.6,30.05,NNW,346,0.0,3.0,50,0.00,,---,0.00,VWS V14.01,2013-02-04 03:40:00,
2013-02-03 20:45:00,46.3,28.2,30.05,NNW,346,0.0,2.0,49,0.00,,---,0.00,VWS V14.01,2013-02-04 03:45:00,
2013-02-03 20:50:00,46.4,28.3,30.05,NW,306,2.0,2.0,49,0.00,,---,0.00,VWS V14.01,2013-02-04 03:50:00,
2013-02-03 20:55:00,46.4,27.8,30.05,NW,320,1.0,2.0,48,0.00,,---,0.00,VWS V14.01,2013-02-04 03:55:00,
2013-02-03 21:00:00,46.4,27.8,30.05,NW,325,0.0,2.0,48,0.00,,---,0.00,VWS V14.01,2013-02-04 04:00:00,
2013-02-03 21:05:00,46.4,27.8,30.05,NW,311,1.0,1.0,48,0.00,,---,0.00,VWS V14.01,2013-02-04 04:05:00,
2013-02-03 21:10:00,46.3,27.7,30.05,NNW,343,0.0,0.0,48,0.00,,---,0.00,VWS V14.01,2013-02-04 04:10:00,
2013-02-03 21:15:00,46.3,27.7,30.05,WNW,291,1.0,1.0,48,0.00,,---,0.00,VWS V14.01,2013-02-04 04:15:00,
2013-02-03 21:20:00,46.2,28.1,30.05,WNW,291,1.0,1.0,49,0.00,,---,0.00,VWS V14.01,2013-02-04 04:20:00,
2013-02-03 21:25:00,46.2,28.1,30.05,WNW,300,0.0,0.0,49,0.00,,---,0.00,VWS V14.01,2013-02-04 04:25:00,
2013-02-03 21:30:00,46.1,28.0,30.05,WNW,300,0.0,1.0,49,0.00,,---,0.00,VWS V14.01,2013-02-04 04:30:00,
2013-02-03 21:35:00,46.0,27.9,30.05,NW,312,1.0,1.0,49,0.00,,---,0.00,VWS V14.01,2013-02-04 04:35:00,
2013-02-03 21:39:00,45.9,27.8,30.05,NW,312,0.0,1.0,49,0.00,,---,0.00,VWS V14.01,2013-02-04 04:39:00,
2013-02-03 21:40:00,45.9,27.8,30.05,NW,312,1.0,1.0,49,0.00,,---,0.00,VWS V14.01,2013-02-04 04:40:00,
2013-02-03 21:44:00,45.9,27.8,30.05,NW,312,0.0,0.0,49,0.00,,---,0.00,VWS V14.01,2013-02-04 04:44:00,
2013-02-03 21:45:00,45.9,27.8,30.05,NW,312,0.0,1.0,49,0.00,,---,0.00,VWS V14.01,2013-02-04 04:45:00,
2013-02-03 21:49:00,45.9,27.8,30.05,NW,312,0.0,0.0,49,0.00,,---,0.00,VWS V14.01,2013-02-04 04:49:00,
2013-02-03 21:50:00,45.9,27.8,30.05,NW,312,0.0,0.0,49,0.00,,---,0.00,VWS V14.01,2013-02-04 04:50:00,
2013-02-03 21:54:00,45.7,27.6,30.05,NW,312,0.0,0.0,49,0.00,,---,0.00,VWS V14.01,2013-02-04 04:54:00,
2013-02-03 21:55:00,45.8,27.7,30.05,NW,312,0.0,0.0,49,0.00,,---,0.00,VWS V14.01,2013-02-04 04:55:00,
2013-02-03 21:59:00,45.5,28.0,30.05,NW,312,0.0,0.0,50,0.00,,---,0.00,VWS V14.01,2013-02-04 04:59:00,
2013-02-03 22:00:00,45.5,27.5,30.05,NW,312,0.0,0.0,49,0.00,,---,0.00,VWS V14.01,2013-02-04 05:00:00,
2013-02-03 22:01:00,45.5,28.0,30.05,NW,312,0.0,0.0,50,0.00,,---,0.00,VWS V14.01,2013-02-04 05:01:00,
2013-02-03 22:02:00,45.5,28.0,30.05,NW,312,0.0,0.0,50,0.00,,---,0.00,VWS V14.01,2013-02-04 05:02:00,
2013-02-03 22:03:00,45.5,28.0,30.05,NW,312,0.0,0.0,50,0.00,,---,0.00,VWS V14.01,2013-02-04 05:03:00,
2013-02-03 22:05:00,45.5,28.0,30.05,NW,312,0.0,0.0,50,0.00,,---,0.00,VWS V14.01,2013-02-04 05:05:00,
2013-02-03 22:08:00,45.5,28.0,30.05,NW,312,0.0,1.0,50,0.00,,---,0.00,VWS V14.01,2013-02-04 05:08:00,
2013-02-03 22:10:00,45.5,28.0,30.05,NW,312,0.0,1.0,50,0.00,,---,0.00,VWS V14.01,2013-02-04 05:10:00,
2013-02-03 22:13:00,45.3,27.8,30.05,NW,312,0.0,0.0,50,0.00,,---,0.00,VWS V14.01,2013-02-04 05:13:00,
2013-02-03 22:15:00,45.3,27.8,30.06,NW,312,0.0,0.0,50,0.00,,---,0.00,VWS V14.01,2013-02-04 05:15:00,
2013-02-03 22:18:00,45.1,27.6,30.06,NW,312,0.0,0.0,50,0.00,,---,0.00,VWS V14.01,2013-02-04 05:18:00,
2013-02-03 22:20:00,45.1,27.6,30.05,NW,312,0.0,0.0,50,0.00,,---,0.00,VWS V14.01,2013-02-04 05:20:00,
2013-02-03 22:23:00,45.1,27.6,30.05,NW,312,0.0,0.0,50,0.00,,---,0.00,VWS V14.01,2013-02-04 05:23:00,
2013-02-03 22:25:00,45.1,27.6,30.05,NW,312,0.0,0.0,50,0.00,,---,0.00,VWS V14.01,2013-02-04 05:25:00,
2013-02-03 22:28:00,45.1,27.6,30.05,NW,312,0.0,0.0,50,0.00,,---,0.00,VWS V14.01,2013-02-04 05:28:00,
2013-02-03 22:30:00,45.1,27.6,30.05,NW,312,0.0,0.0,50,0.00,,---,0.00,VWS V14.01,2013-02-04 05:30:00,
2013-02-03 22:33:00,45.1,27.6,30.05,NW,312,0.0,0.0,50,0.00,,---,0.00,VWS V14.01,2013-02-04 05:33:00,
2013-02-03 22:35:00,45.2,27.7,30.05,NW,312,0.0,0.0,50,0.00,,---,0.00,VWS V14.01,2013-02-04 05:35:00,
2013-02-03 22:38:00,45.2,27.7,30.05,NW,312,1.0,2.0,50,0.00,,---,0.00,VWS V14.01,2013-02-04 05:38:00,
2013-02-03 22:40:00,45.2,27.7,30.05,NW,312,0.0,2.0,50,0.00,,---,0.00,VWS V14.01,2013-02-04 05:40:00,
2013-02-03 22:43:00,45.3,27.8,30.05,NW,312,0.0,2.0,50,0.00,,---,0.00,VWS V14.01,2013-02-04 05:43:00,
2013-02-03 22:45:00,45.4,27.9,30.05,NW,312,0.0,2.0,50,0.00,,---,0.00,VWS V14.01,2013-02-04 05:45:00,
2013-02-03 22:48:00,45.3,27.8,30.05,NW,312,0.0,0.0,50,0.00,,---,0.00,VWS V14.01,2013-02-04 05:48:00,
2013-02-03 22:50:00,45.3,27.8,30.05,NNW,335,2.0,2.0,50,0.00,,---,0.00,VWS V14.01,2013-02-04 05:50:00,
2013-02-03 22:53:00,45.3,27.8,30.05,NNW,335,0.0,2.0,50,0.00,,---,0.00,VWS V14.01,2013-02-04 05:53:00,
2013-02-03 22:55:00,45.3,27.8,30.05,NNW,335,1.0,2.0,50,0.00,,---,0.00,VWS V14.01,2013-02-04 05:55:00,
2013-02-03 22:58:00,45.2,27.7,30.05,NNW,335,0.0,2.0,50,0.00,,---,0.00,VWS V14.01,2013-02-04 05:58:00,
2013-02-03 23:00:00,45.3,27.8,30.05,NNW,335,0.0,2.0,50,0.00,,---,0.00,VWS V14.01,2013-02-04 06:00:00,
2013-02-03 23:03:00,45.3,27.8,30.05,NNW,335,0.0,1.0,50,0.00,,---,0.00,VWS V14.01,2013-02-04 06:03:00,
2013-02-03 23:05:00,45.3,27.8,30.05,North,5,0.0,2.0,50,0.00,,---,0.00,VWS V14.01,2013-02-04 06:05:00,
2013-02-03 23:08:00,45.2,27.7,30.05,North,5,0.0,1.0,50,0.00,,---,0.00,VWS V14.01,2013-02-04 06:08:00,
2013-02-03 23:10:00,45.2,27.7,30.05,North,5,1.0,1.0,50,0.00,,---,0.00,VWS V14.01,2013-02-04 06:10:00,
2013-02-03 23:13:00,45.2,27.2,30.04,North,5,0.0,2.0,49,0.00,,---,0.00,VWS V14.01,2013-02-04 06:13:00,
2013-02-03 23:15:00,45.1,27.6,30.05,North,5,0.0,2.0,50,0.00,,---,0.00,VWS V14.01,2013-02-04 06:15:00,
2013-02-03 23:18:00,45.0,27.5,30.05,North,5,0.0,1.0,50,0.00,,---,0.00,VWS V14.01,2013-02-04 06:18:00,
2013-02-03 23:20:00,45.0,27.5,30.04,North,5,0.0,1.0,50,0.00,,---,0.00,VWS V14.01,2013-02-04 06:20:00,
2013-02-03 23:23:00,45.0,27.0,30.05,North,5,0.0,1.0,49,0.00,,---,0.00,VWS V14.01,2013-02-04 06:23:00,
2013-02-03 23:25:00,45.0,27.0,30.05,North,5,0.0,1.0,49,0.00,,---,0.00,VWS V14.01,2013-02-04 06:25:00,
2013-02-03 23:28:00,45.1,26.6,30.04,NNW,346,0.0,3.0,48,0.00,,---,0.00,VWS V14.01,2013-02-04 06:28:00,
2013-02-03 23:30:00,45.1,26.6,30.04,NNW,346,0.0,3.0,48,0.00,,---,0.00,VWS V14.01,2013-02-04 06:30:00,
2013-02-03 23:33:00,45.1,26.6,30.04,NW,326,0.0,2.0,48,0.00,,---,0.00,VWS V14.01,2013-02-04 06:33:00,
2013-02-03 23:35:00,45.1,26.6,30.04,NW,326,0.0,2.0,48,0.00,,---,0.00,VWS V14.01,2013-02-04 06:35:00,
2013-02-03 23:38:00,45.0,26.5,30.04,NW,326,0.0,2.0,48,0.00,,---,0.00,VWS V14.01,2013-02-04 06:38:00,
2013-02-03 23:40:00,45.0,26.5,30.04,NW,311,0.0,2.0,48,0.00,,---,0.00,VWS V14.01,2013-02-04 06:40:00,
2013-02-03 23:43:00,44.9,26.4,30.03,NW,311,0.0,1.0,48,0.00,,---,0.00,VWS V14.01,2013-02-04 06:43:00,
2013-02-03 23:45:00,44.9,26.4,30.03,NW,311,0.0,1.0,48,0.00,,---,0.00,VWS V14.01,2013-02-04 06:45:00,
2013-02-03 23:48:00,44.8,26.3,30.04,NNW,336,0.0,2.0,48,0.00,,---,0.00,VWS V14.01,2013-02-04 06:48:00,
2013-02-03 23:50:00,44.8,26.3,30.04,NNW,336,0.0,2.0,48,0.00,,---,0.00,VWS V14.01,2013-02-04 06:50:00,
2013-02-03 23:53:00,44.7,26.7,30.04,NNW,336,0.0,1.0,49,0.00,,---,0.00,VWS V14.01,2013-02-04 06:53:00,
2013-02-03 23:55:00,44.7,26.7,30.04,NNW,336,1.0,2.0,49,0.00,,---,0.00,VWS V14.01,2013-02-04 06:55:00,
2013-02-03 23:58:00,44.5,26.5,30.03,NNW,336,2.0,2.0,49,0.00,,---,0.00,VWS V14.01,2013-02-04 06:58:00,